HS5AM-10 Weather Reports


time (UTC)temp
C
wind
direction
speed
KPH
gust
KPH
rain 1hr
cm
rain 24hr
cm
rain mn
cm
humidity
%
barometer
mb
20260504081306 42 0 0.0 0.0 0.00 0.00 0.00 27 979.0
20260504080242 42 0 0.0 0.0 0.00 0.00 0.00 27 979.0
20260504050555 37 0 0.0 0.0 0.00 0.00 0.00 37 983.0
20260504045531 36 0 0.0 0.0 0.00 0.00 0.00 39 983.0
20260504044507 36 0 0.0 0.0 0.00 0.00 0.00 41 983.0
20260504043443 36 0 0.0 0.0 0.00 0.00 0.00 42 983.0
20260504042420 36 0 0.0 0.0 0.00 0.00 0.00 42 983.0
20260504041356 35 0 0.0 0.0 0.00 0.00 0.00 44 983.0
20260504040332 35 0 0.0 0.0 0.00 0.00 0.00 44 983.0
20260504035308 35 0 0.0 0.0 0.00 0.00 0.00 45 983.0
20260504034244 34 0 0.0 0.0 0.00 0.00 0.00 46 983.0
20260504033220 34 0 0.0 0.0 0.00 0.00 0.00 47 984.0
20260504032156 33 0 0.0 0.0 0.00 0.00 0.00 47 984.0
20260504031132 33 0 0.0 0.0 0.00 0.00 0.00 48 984.0
20260504030108 33 0 0.0 0.0 0.00 0.00 0.00 48 984.0
20260504025044 33 0 0.0 0.0 0.00 0.00 0.00 48 984.0
20260504024020 32 0 0.0 0.0 0.00 0.00 0.00 50 984.0
20260504022957 32 0 0.0 0.0 0.00 0.00 0.00 51 984.0
20260504021932 32 0 0.0 0.0 0.00 0.00 0.00 53 984.0
20260504020908 32 0 0.0 0.0 0.00 0.00 0.00 53 984.0
20260504015845 31 0 0.0 0.0 0.00 0.00 0.00 54 984.0
20260504014821 31 0 0.0 0.0 0.00 0.00 0.00 55 984.0
20260504013757 31 0 0.0 0.0 0.00 0.00 0.00 55 984.0
20260504012733 31 0 0.0 0.0 0.00 0.00 0.00 56 984.0
20260504011709 31 0 0.0 0.0 0.00 0.00 0.00 57 984.0
20260504010645 31 0 0.0 0.0 0.00 0.00 0.00 58 984.0
20260504005621 31 0 0.0 0.0 0.00 0.00 0.00 59 984.0
20260504004557 30 0 0.0 0.0 0.00 0.00 0.00 58 984.0
20260504003533 31 0 0.0 0.0 0.00 0.00 0.00 58 983.0
20260504002509 31 0 0.0 0.0 0.00 0.00 0.00 58 983.0
20260504001445 31 0 0.0 0.0 0.00 0.00 0.00 57 983.0
20260504000420 31 0 0.0 0.0 0.00 0.00 0.00 55 983.0
20260503235356 31 0 0.0 0.0 0.00 0.00 0.00 55 983.0
20260503234332 31 0 0.0 0.0 0.00 0.00 0.00 55 983.0
20260503233308 31 0 0.0 0.0 0.00 0.00 0.00 55 983.0
20260503232244 31 0 0.0 0.0 0.00 0.00 0.00 55 983.0
20260503231220 31 0 0.0 0.0 0.00 0.00 0.00 55 982.0
20260503230156 31 0 0.0 0.0 0.00 0.00 0.00 55 982.0
20260503225132 31 0 0.0 0.0 0.00 0.00 0.00 54 982.0
20260503224108 31 0 0.0 0.0 0.00 0.00 0.00 54 982.0
20260503223044 31 0 0.0 0.0 0.00 0.00 0.00 54 982.0
20260503222020 31 0 0.0 0.0 0.00 0.00 0.00 54 982.0
20260503220955 32 0 0.0 0.0 0.00 0.00 0.00 54 982.0
20260503215931 32 0 0.0 0.0 0.00 0.00 0.00 53 982.0
20260503214907 32 0 0.0 0.0 0.00 0.00 0.00 53 982.0
20260503213842 32 0 0.0 0.0 0.00 0.00 0.00 53 982.0
20260503212817 32 0 0.0 0.0 0.00 0.00 0.00 52 981.0
20260503211753 32 0 0.0 0.0 0.00 0.00 0.00 52 981.0
20260503210728 32 0 0.0 0.0 0.00 0.00 0.00 52 981.0
20260503205704 32 0 0.0 0.0 0.00 0.00 0.00 52 981.0
20260503204639 32 0 0.0 0.0 0.00 0.00 0.00 52 981.0
20260503203615 32 0 0.0 0.0 0.00 0.00 0.00 51 981.0
20260503202551 32 0 0.0 0.0 0.00 0.00 0.00 51 981.0
20260503201527 32 0 0.0 0.0 0.00 0.00 0.00 51 981.0
20260503200503 32 0 0.0 0.0 0.00 0.00 0.00 51 981.0
20260503195438 32 0 0.0 0.0 0.00 0.00 0.00 51 981.0
20260503194414 32 0 0.0 0.0 0.00 0.00 0.00 50 981.0
20260503193350 32 0 0.0 0.0 0.00 0.00 0.00 50 981.0
20260503192325 33 0 0.0 0.0 0.00 0.00 0.00 50 981.0
20260503191301 33 0 0.0 0.0 0.00 0.00 0.00 50 981.0
20260503190237 33 0 0.0 0.0 0.00 0.00 0.00 50 981.0
20260503185213 33 0 0.0 0.0 0.00 0.00 0.00 49 981.0
20260503184148 33 0 0.0 0.0 0.00 0.00 0.00 49 981.0
20260503183124 33 0 0.0 0.0 0.00 0.00 0.00 49 982.0
20260503182100 33 0 0.0 0.0 0.00 0.00 0.00 49 982.0
20260503181035 33 0 0.0 0.0 0.00 0.00 0.00 48 982.0
20260503180011 33 0 0.0 0.0 0.00 0.00 0.00 48 982.0
20260503174947 33 0 0.0 0.0 0.00 0.00 0.00 48 982.0
20260503173923 33 0 0.0 0.0 0.00 0.00 0.00 48 982.0
20260503172858 33 0 0.0 0.0 0.00 0.00 0.00 48 982.0
20260503171834 34 0 0.0 0.0 0.00 0.00 0.00 48 982.0
20260503170809 34 0 0.0 0.0 0.00 0.00 0.00 47 982.0
20260503150319 35 0 0.0 0.0 0.00 0.00 0.00 45 981.0
20260503130854 37 0 0.0 0.0 0.00 0.00 0.00 38 979.0
20260503110407 40 0 0.0 0.0 0.00 0.00 0.00 29 977.0